Flag for Finland Weather past 2 weeks in Espoo, Finland

Now
32 °F

Snow. Partly sunny.


Feels Like: 21 °F
Forecast: 36 / 39 °F
Wind: 16 mph from East

Location: Helsinki-Vantaa

Current Time: Mar 30, 2015 at 7:55:03 PM

Latest Report: Mar 30, 2015 at 7:20 PM


Visibility: 1 mi

Pressure: 29.09 "Hg

Humidity: 100%

Dew point: 32 °F

Location of EspooLocation

Historic Weather in Espoo — Graph

°F

Espoo temperature yesterday

Maximum temperature yesterday: 39 °F (at 2:50 PM)
Minimum temperature yesterday: 34 °F (at 12:20 AM)
Average temperature yesterday: 37 °F

Past Weeks' High & Low Weather Summary

 TemperatureHumidityPressure
High54 °F (Mar 18, 1:50 PM)100% (Mar 29, 12:50 AM)31.04 "Hg (Mar 29, 12:50 AM)
Low16 °F (Mar 22, 5:20 AM)22% (Mar 18, 4:20 PM)29.09 "Hg (Mar 30, 6:50 PM)
Average34 °F68%30.11 "Hg
* Reported Mar 15 5:20 PM — Mar 30 6:50 PM, Espoo, Weather by CustomWeather, © 2015

Note: Actual official high and low records may vary slightly from our data, if they occured in-between our weather recording intervals... More about our weather records

Advertising

Espoo weather history for previous 24 hours

 ConditionsComfort  
Time TempWeatherWind HumidityBarometerVisibility
6:50 PM
Mon, Mar 30
32 °FSnow. Partly sunny.15 mph100%29.09 "Hg1 mi
6:20 PM32 °FSnow. Partly sunny.17 mph100%29.12 "Hg1 mi
5:50 PM32 °FSnow. Partly sunny.18 mph100%29.12 "Hg1 mi
5:20 PM32 °FLight snow. Broken clouds.17 mph100%29.12 "Hg2 mi
4:50 PM32 °FLight snow. Partly sunny.17 mph100%29.12 "Hg1 mi
4:20 PM32 °FSnow. Partly sunny.18 mph100%29.12 "Hg1 mi
3:50 PM32 °FSnow. Partly sunny.18 mph93%29.15 "Hg1 mi
3:20 PM32 °FSnow. Partly sunny.17 mph93%29.15 "Hg1 mi
2:50 PM32 °FSnow. Partly sunny.16 mph100%29.15 "Hg1 mi
2:20 PM32 °FSnow. Partly sunny.17 mph93%29.15 "Hg1 mi
1:50 PM32 °FSnow. Partly sunny.16 mph93%29.18 "Hg1 mi
1:20 PM32 °FSnow. Partly sunny.16 mph93%29.18 "Hg1 mi
12:50 PM32 °FSnow. Partly sunny.16 mph100%29.18 "Hg1 mi
12:20 PM32 °FSnow. Partly sunny.15 mph100%29.18 "Hg1 mi
11:50 AM32 °FSnow. Partly sunny.14 mph93%29.21 "Hg1 mi
11:20 AM32 °FSnow. Partly sunny.15 mph100%29.21 "Hg1 mi
10:50 AM32 °FLight snow. Partly sunny.16 mph100%29.21 "Hg1 mi
10:20 AM32 °FSnow. Mostly cloudy.15 mph100%29.21 "Hg1 mi
9:50 AM32 °FSnow. Mostly cloudy.15 mph100%29.24 "Hg1 mi
9:20 AM32 °FSnow. Mostly cloudy.17 mph100%29.24 "Hg1 mi
8:50 AM32 °FSnow. Mostly cloudy.17 mph100%29.24 "Hg1 mi
8:20 AM32 °FSnow. Mostly cloudy.16 mph100%29.24 "Hg1 mi
7:50 AM32 °FSnow. Mostly cloudy.15 mph100%29.24 "Hg1 mi
7:20 AM32 °FSnow. Mostly cloudy.15 mph100%29.24 "Hg1 mi
6:50 AM34 °FSnow. Passing clouds.17 mph93%29.27 "Hg1 mi
6:20 AM34 °FLight rain. Passing clouds.21 mph93%29.27 "Hg3 mi
5:50 AM34 °FLight rain. Passing clouds.22 mph93%29.27 "Hg4 mi
5:20 AM36 °FLight rain. Passing clouds.23 mph87%29.27 "HgN/A
4:50 AM36 °FLight rain. Passing clouds.21 mph87%29.27 "HgN/A
4:20 AM36 °FLight rain. Partly cloudy.21 mph87%29.27 "Hg6 mi
3:50 AM36 °FLight rain. Passing clouds.22 mph87%29.30 "Hg4 mi
3:20 AM36 °FLight rain. Passing clouds.18 mph87%29.30 "Hg4 mi
2:50 AM36 °FLight rain. Passing clouds.21 mph87%29.33 "Hg4 mi
2:20 AM36 °FRain. Passing clouds.21 mph87%29.33 "Hg6 mi
1:50 AM36 °FLight rain. Partly cloudy.23 mph87%29.33 "HgN/A
1:20 AM37 °FLight rain. Passing clouds.18 mph81%29.33 "HgN/A
12:50 AM37 °FLight rain. Passing clouds.21 mph81%29.36 "HgN/A
12:20 AM37 °FLight rain. Passing clouds.21 mph81%29.36 "HgN/A
11:50 PM
Sun, Mar 29
37 °FPassing clouds.22 mph81%29.36 "HgN/A
11:20 PM37 °FPartly cloudy.22 mph87%29.39 "HgN/A
10:50 PM37 °FPassing clouds.20 mph87%29.39 "HgN/A
10:20 PM37 °FPartly cloudy.21 mph87%29.42 "HgN/A
9:50 PM37 °FLow clouds.21 mph87%29.42 "HgN/A
9:20 PM37 °FLow clouds.20 mph87%29.45 "Hg5 mi
8:50 PM37 °FLow clouds.22 mph87%29.45 "Hg5 mi
8:20 PM37 °FLow clouds.21 mph87%29.45 "Hg5 mi
7:50 PM39 °FLow clouds.20 mph87%29.47 "Hg5 mi
7:20 PM39 °FPartly sunny.18 mph87%29.47 "Hg6 mi
Weather by CustomWeather, © 2015

See weather overviewHow to use our weather pages